DAL144 KISP-KMDW

Flight info

Callsign DAL144
Flight time N/A
Altitude 38000
Route DCT NEWEL J60 DJB DCT ASHEN PANGG7
Aircraft B739/M-VGDW/C

Departure

Time 2026-04-28 16:58
Airport Long Island MacArthur Airport (KISP)

Arrival

Time N/A
Airport Chicago Midway International Airport (KMDW)
Time Latitude Longitude Altitude Speed Heading
2026-04-28 16:27 40.79012 -73.09437 91 ft 0 kts 227°
2026-04-28 16:48 40.79019 -73.09427 91 ft 3 kts 227°
2026-04-28 16:48 40.79027 -73.09406 90 ft 3 kts 284°
2026-04-28 16:48 40.79021 -73.09391 90 ft 0 kts 317°
2026-04-28 16:52 40.79039 -73.09404 89 ft 7 kts 332°
2026-04-28 16:52 40.79068 -73.09434 88 ft 0 kts 314°
2026-04-28 16:52 40.79069 -73.09435 88 ft 0 kts 314°
2026-04-28 16:53 40.79081 -73.09451 88 ft 6 kts 314°
2026-04-28 16:54 40.79147 -73.09507 90 ft 15 kts
2026-04-28 16:54 40.79261 -73.09465 88 ft 22 kts 350°
2026-04-28 16:54 40.79422 -73.09471 91 ft 23 kts
2026-04-28 16:54 40.79508 -73.09471 91 ft 0 kts
2026-04-28 16:55 40.79525 -73.09470 90 ft 10 kts
2026-04-28 16:55 40.79652 -73.09470 89 ft 23 kts
2026-04-28 16:55 40.79805 -73.09471 92 ft 12 kts 360°
2026-04-28 16:55 40.79885 -73.09471 92 ft 11 kts 360°
2026-04-28 16:56 40.79966 -73.09471 91 ft 13 kts 359°
2026-04-28 16:56 40.80072 -73.09446 91 ft 19 kts 36°
2026-04-28 16:56 40.80138 -73.09393 88 ft 5 kts
2026-04-28 16:56 40.80140 -73.09393 88 ft 0 kts 356°
2026-04-28 16:57 40.80144 -73.09395 90 ft 3 kts 349°
2026-04-28 16:57 40.80197 -73.09447 89 ft 15 kts 297°
2026-04-28 16:57 40.80055 -73.09679 94 ft 74 kts 224°
2026-04-28 16:57 40.79484 -73.10428 98 ft 154 kts 225°
2026-04-28 16:58 40.78594 -73.11593 313 ft 198 kts 225°
2026-04-28 16:58 40.77761 -73.12938 1676 ft 184 kts 231°
2026-04-28 16:58 40.76877 -73.14278 2448 ft 209 kts 224°
2026-04-28 16:58 40.75764 -73.15724 2966 ft 238 kts 224°
2026-04-28 16:59 40.74522 -73.17350 3132 ft 257 kts 224°
2026-04-28 16:59 40.73245 -73.19040 3180 ft 261 kts 225°
2026-04-28 16:59 40.71972 -73.20772 3243 ft 264 kts 226°
2026-04-28 16:59 40.70748 -73.22547 3234 ft 266 kts 237°
2026-04-28 17:00 40.70248 -73.24875 3245 ft 263 kts 274°
2026-04-28 17:00 40.70796 -73.27108 3276 ft 261 kts 297°
2026-04-28 17:00 40.71563 -73.29295 3228 ft 264 kts 294°
2026-04-28 17:00 40.72281 -73.31539 3223 ft 267 kts 292°
2026-04-28 17:01 40.72995 -73.33812 3247 ft 270 kts 292°
2026-04-28 17:01 40.73720 -73.36129 3224 ft 271 kts 291°
2026-04-28 17:01 40.74420 -73.38395 3240 ft 269 kts 291°
2026-04-28 17:01 40.75121 -73.40667 3211 ft 263 kts 291°
2026-04-28 17:02 40.75809 -73.42899 3217 ft 264 kts 291°
2026-04-28 17:02 40.76267 -73.44383 3262 ft 264 kts 291°
2026-04-28 17:02 40.77191 -73.47406 3244 ft 266 kts 291°
2026-04-28 17:02 40.77891 -73.49693 3215 ft 269 kts 291°
2026-04-28 17:03 40.79274 -73.54232 3269 ft 266 kts 291°
2026-04-28 17:03 40.79966 -73.56507 3223 ft 266 kts 291°
2026-04-28 17:03 40.80656 -73.58769 3241 ft 265 kts 291°
2026-04-28 17:04 40.82025 -73.63270 3218 ft 263 kts 291°
2026-04-28 17:04 40.82704 -73.65512 3235 ft 262 kts 289°
2026-04-28 17:05 40.84045 -73.69939 3227 ft 260 kts 289°
2026-04-28 17:05 40.84721 -73.72171 3201 ft 263 kts 289°
2026-04-28 17:05 40.85396 -73.74414 3224 ft 262 kts 289°
2026-04-28 17:06 40.86747 -73.78898 3223 ft 263 kts 289°
2026-04-28 17:06 40.87432 -73.81161 3188 ft 267 kts 289°
2026-04-28 17:06 40.88802 -73.85710 3213 ft 266 kts 289°
2026-04-28 17:07 40.89484 -73.87984 3195 ft 265 kts 289°
2026-04-28 17:07 40.90160 -73.90234 3211 ft 262 kts 289°
2026-04-28 17:07 40.90830 -73.92470 3218 ft 261 kts 289°
2026-04-28 17:07 40.91497 -73.94694 3206 ft 260 kts 289°
2026-04-28 17:08 40.92163 -73.96914 3214 ft 259 kts 289°
2026-04-28 17:08 40.92818 -73.99105 3208 ft 259 kts 289°
2026-04-28 17:08 40.93493 -74.01355 3212 ft 261 kts 289°
2026-04-28 17:08 40.94152 -74.03562 3230 ft 261 kts 288°
2026-04-28 17:09 40.94822 -74.05799 3219 ft 262 kts 288°
2026-04-28 17:09 40.95489 -74.08045 3251 ft 264 kts 288°
2026-04-28 17:09 40.96159 -74.10311 3229 ft 264 kts 288°
2026-04-28 17:09 40.96830 -74.12569 3226 ft 263 kts 288°
2026-04-28 17:10 40.97504 -74.14822 3223 ft 262 kts 288°
2026-04-28 17:10 40.98169 -74.17068 3226 ft 261 kts 288°
2026-04-28 17:10 40.98835 -74.19302 3226 ft 261 kts 288°
2026-04-28 17:10 40.99489 -74.21512 3251 ft 261 kts 288°
2026-04-28 17:11 41.00155 -74.23749 3226 ft 261 kts 288°
2026-04-28 17:11 41.00802 -74.25993 3189 ft 262 kts 288°
2026-04-28 17:11 41.01466 -74.28224 3248 ft 262 kts 288°
2026-04-28 17:11 41.02108 -74.30493 3239 ft 262 kts 287°
2026-04-28 17:12 41.02761 -74.32749 3212 ft 260 kts 289°
2026-04-28 17:12 41.03432 -74.34964 3216 ft 259 kts 288°
2026-04-28 17:12 41.04106 -74.37198 3376 ft 265 kts 287°
2026-04-28 17:12 41.04805 -74.39489 4136 ft 270 kts 288°
2026-04-28 17:13 41.05503 -74.41823 5062 ft 275 kts 287°
2026-04-28 17:13 41.06200 -74.44198 5966 ft 277 kts 287°
2026-04-28 17:13 41.06901 -74.46587 6889 ft 279 kts 287°
2026-04-28 17:13 41.07604 -74.48989 7819 ft 280 kts 288°
2026-04-28 17:14 41.08308 -74.51387 8798 ft 279 kts 288°
2026-04-28 17:14 41.09012 -74.53791 9687 ft 281 kts 289°
2026-04-28 17:14 41.09723 -74.56221 10548 ft 283 kts 288°
2026-04-28 17:14 41.10431 -74.58639 11334 ft 287 kts 288°
2026-04-28 17:15 41.11158 -74.61126 12076 ft 291 kts 288°
2026-04-28 17:15 41.11893 -74.63646 12863 ft 295 kts 288°
2026-04-28 17:15 41.12639 -74.66203 13636 ft 299 kts 288°
2026-04-28 17:15 41.13398 -74.68802 14375 ft 303 kts 289°
2026-04-28 17:16 41.14299 -74.71339 15120 ft 306 kts 296°
2026-04-28 17:16 41.15352 -74.73801 15874 ft 308 kts 297°
2026-04-28 17:16 41.16450 -74.76259 16599 ft 311 kts 298°
2026-04-28 17:16 41.17560 -74.78734 17328 ft 313 kts 298°
2026-04-28 17:17 41.18659 -74.81201 18053 ft 316 kts 297°
2026-04-28 17:17 41.19781 -74.83737 18650 ft 322 kts 297°
2026-04-28 17:17 41.20916 -74.86320 19278 ft 323 kts 297°
2026-04-28 17:17 41.22044 -74.88899 19963 ft 324 kts 297°
2026-04-28 17:18 41.23181 -74.91507 20620 ft 325 kts 297°
2026-04-28 17:18 41.24318 -74.94122 21242 ft 327 kts 297°
2026-04-28 17:18 41.25445 -74.96719 21854 ft 330 kts 297°
2026-04-28 17:18 41.26595 -74.99372 22483 ft 332 kts 297°
2026-04-28 17:19 41.27752 -75.02045 23111 ft 334 kts 297°
2026-04-28 17:19 41.28918 -75.04743 23729 ft 337 kts 297°
2026-04-28 17:19 41.30092 -75.07461 24218 ft 340 kts 297°
2026-04-28 17:19 41.31276 -75.10205 24679 ft 344 kts 297°
2026-04-28 17:20 41.32469 -75.12974 25204 ft 345 kts 297°
2026-04-28 17:20 41.33261 -75.14811 25569 ft 346 kts 297°
2026-04-28 17:20 41.34851 -75.18505 26261 ft 348 kts 297°
2026-04-28 17:20 41.36047 -75.21288 26890 ft 345 kts 297°
2026-04-28 17:21 41.37232 -75.24045 27583 ft 341 kts 297°
2026-04-28 17:21 41.38403 -75.26770 28288 ft 337 kts 297°
2026-04-28 17:21 41.39561 -75.29471 28928 ft 334 kts 297°
2026-04-28 17:22 41.41854 -75.34831 30086 ft 332 kts 296°
2026-04-28 17:22 41.42991 -75.37491 30616 ft 329 kts 296°
2026-04-28 17:22 41.44118 -75.40127 31169 ft 324 kts 296°
2026-04-28 17:23 41.46322 -75.45292 32137 ft 319 kts 296°
2026-04-28 17:23 41.47408 -75.47857 32574 ft 316 kts 294°
2026-04-28 17:23 41.48299 -75.50487 33096 ft 308 kts 288°
2026-04-28 17:23 41.49061 -75.53136 33647 ft 303 kts 287°
2026-04-28 17:24 41.49787 -75.55718 34072 ft 300 kts 287°
2026-04-28 17:24 41.50519 -75.58317 34422 ft 298 kts 287°
2026-04-28 17:24 41.51248 -75.60894 34730 ft 296 kts 287°
2026-04-28 17:24 41.51979 -75.63464 34998 ft 296 kts 287°
2026-04-28 17:25 41.52715 -75.66044 35216 ft 297 kts 287°
2026-04-28 17:25 41.54204 -75.71253 35543 ft 303 kts 287°
2026-04-28 17:25 41.54959 -75.73893 35716 ft 305 kts 287°